Location: Paralde Spring
(38.5794°N, 119.0140°W)
Time: 23:59:26
(UTC+00:00)

Cosmos 1570 Rocket - Pass Details

Date: 18 September 2020
Orbit: 763 x 788 km, 74.1° (Epoch: 20 October)

Event Time Altitude Azimuth Distance (km) Brightness Sun altitude
Rises 12:54:10 0° 196° (SSW) 3,236 7.0 -9.9°
Reaches altitude 10° 12:56:32 10° 195° (SSW) 2,317 6.2 -9.4°
Maximum altitude 13:01:48 87° 107° (ESE) 787 4.1 -8.4°
Drops below altitude 10° 13:07:10 10° 19° (NNE) 2,348 6.9 -7.4°
Sets 13:09:34 0° 19° (NNE) 3,284 7.7 -6.9°
